星链-36143(STARLINK-36143)

导读

STARLINK-36143是美国SpaceX公司于2025年12月11日发射的Starlink星链卫星,属于低轨卫星互联网星座的组成部分。星链星座旨在为全球提供高速低延迟宽带互联网服务,尤其覆盖传统基础设施缺失的偏远区域,可提供50-100Mbps以上下载速度、20-40ms低时延,支持视频通信、在线上网等需求,持续拓展全球卫星互联网络覆盖能力。

基本信息
目录编号:
67056
目录名称:
STARLINK-36143
国际标识:
2025-294AC
轨道中心:
EARTH
卫星名称:
星链-36143
卫星全名:
星链-36143(STARLINK-36143)
卫星状态:
在轨 (已飞行267 天)
发射日期:
2025-12-11 UTC
国别 :
美国 (US)
星等 :
--
轨道信息
数据来源 国际轨道数据 AOE轨道数据
星历时间 2026-09-04T08:25:14+0800
18小时前
查看轨道信息
2026-08-29T23:00:00+0800
6天前
查看轨道信息
半长轴 6861.177km 6861.132km
偏心率 0.0001658 0.0001298
轨道倾角 43.004° 43.002°
近地点辐角 273.209° 257.391°
升交点赤经 110.842° 141.300°
平近点角 86.857° 292.925°
近地点 481.902km 482.104km
远地点 484.178km 483.886km
周期 94.267分钟 94.266分钟
每日圈数 15.275832 15.275982
详细信息
固有亮度:
5
最大亮度:
2.5
卫星平台:
Starlink V1.0
覆盖范围:
全球
运营商:
太空探索技术公司
运营商所在国:
美国
制造商(研发单位):
太空探索技术公司
制造商所在国:
美国
使用方式:
暂无
卫星简介
Starlink 计划是 SpaceX 推出的全球卫星互联网项目,通过发射低轨道卫星,为全球尤其是偏远地区提供高速、低延迟的互联网服务。自 2019 年起,Starlink 已部署数千颗卫星,旨在缩小全球数字鸿沟,推动互联网普及。该项目还为军事、航空等行业提供通信支持,带来广泛经济效益。
2D轨道图
3D轨道图
轨道高度分析图
轨道倾角分析图
轨道综合分析图
查看轨道综合分析图
交会数据列表
事件ID 空间交会对象 最接近时刻(TCA) 交会距离 交会风险概率(CRP) 交会风险指数(CRI) 操作
CDM_260906-110205-812306-705621
2026-09-06T
11:02:28+0000
0.451 km
远距离
1.766223E-4 高风险 0.8
CDM_260906-092805-812306-705621
2026-09-06T
09:28:19+0000
1.197 km
极远距离
9.116665E-6 低风险 0.54
CDM_260906-123605-812306-705621
2026-09-06T
12:36:37+0000
1.812 km
极远距离
2.445964E-6 低风险 0.43
CDM_260907-014105-549806-705621
2026-09-07T
01:41:08+0000
1.700 km
极远距离
2.24617E-6 低风险 0.42
CDM_260906-075405-812306-705621
2026-09-06T
07:54:10+0000
2.586 km
极远距离
1.12628E-6 低风险 0.36
CDM_260904-210406-388806-705621
2026-09-04T
21:04:55+0000
2.904 km
极远距离
7.764698E-7 极低风险 0.33